User: anonymous   Login
Location: Unspecified
(0.0000°N, 0.0000°E)
Time: 04:31:21
(UTC+00:00)
Language:

PRAETORIAN SDA_610 - Orbit

View from above orbital plane
View from above orbital plane
View from above satellite
View from above satellite

Ground track
Ground track

The orbit is defined by the following mean orbital elements,

1 65574U          26145.41723484 +.00000000 +00000-0 +11350-3 0 00004
2 65574  81.3029  31.9926 0004651 267.4593  92.6031 13.83305996    02
Epoch (UTC): 25 May 2026 10:00:49
Eccentricity: 0.0004651
inclination: 81.3029°
perigee height: 949 km
apogee height: 956 km
right ascension of ascending node: 31.9926°
argument of perigee: 267.4593°
revolutions per day: 13.83305996
mean anomaly at epoch: 92.6031°

The dashed part of the orbit path shows where the satellite is in the earth's shadow,  

DLR